Weather History for Hickory, NC

Change the Weather History Date:

Sunday, April 29, 2012

  Actual Average Record
Temperature  
Mean Temperature 64 °F -  
Max Temperature 82 °F 72 °F 89 °F (1950)
Min Temperature 48 °F 49 °F 35 °F (1967)
Growing Degree Days 14 (Base 50)    
Moisture  
Dew Point 54 °F    
Average Humidity 72    
Maximum Humidity 97    
Minimum Humidity 47    
Precipitation  
Precipitation 0.00 in - - ()
Sea Level Pressure  
Sea Level Pressure 30.11 in    
Wind  
Wind Speed 2 mph (South)    
Max Wind Speed 6 mph    
Max Gust Speed -    
Visibility 8 miles    
Events      
Averages and records for this station are not official NWS values.
T = Trace of Precipitation, MM = Missing Value Source: NWS Daily Summary

Daily Weather History Graph

Daily Weather History Graph

Search for Another Location

Airport:

Trip Planner

Search our weather history database for the weather conditions in past years. The results will help you decide how hot, cold, wet, or windy it might be!

Date:

Astronomy

Apr. 29, 2012 Rise Set
Actual Time 6:35 AM EDT 8:11 PM EDT
Civil Twilight 6:07 AM EDT 8:38 PM EDT
Nautical Twilight 5:35 AM EDT 9:11 PM EDT
Astronomical Twilight 5:00 AM EDT 9:45 PM EDT
Moon 1:16 PM EDT (4/29) 2:09 AM EDT (4/29)
Length of Visible Light 14h 30m
Length of Day
13h 35m
First Quarter, 53% of the Moon is Illuminated
Apr 29
First Quarter
May 5
Full
May 12
Last Quarter
May 20
New
May 28
First Quarter

Hourly Weather History & Observations

Time (EDT) Temp. Heat Index Dew Point Humidity Pressure Visibility Wind Dir Wind Speed Gust Speed Precip Events Conditions
12:53 AM 51.1 °F - 48.0 °F 89% 30.15 in 6.0 mi North 4.6 mph - N/A   Clear
1:53 AM 50.0 °F - 48.9 °F 96% 30.13 in 6.0 mi Calm Calm - N/A   Clear
2:53 AM 50.0 °F - 48.0 °F 93% 30.10 in 6.0 mi Calm Calm - N/A   Clear
3:09 AM 50.0 °F - 48.2 °F 94% 30.14 in 6.0 mi Calm Calm - N/A   Scattered Clouds
3:17 AM 51.8 °F - 48.2 °F 88% 30.14 in 5.0 mi Calm Calm - N/A   Mostly Cloudy
3:53 AM 50.0 °F - 48.0 °F 93% 30.10 in 5.0 mi Calm Calm - N/A   Scattered Clouds
4:53 AM 48.9 °F - 48.0 °F 97% 30.10 in 5.0 mi Calm Calm - N/A   Clear
5:53 AM 50.0 °F - 48.0 °F 93% 30.09 in 6.0 mi Calm Calm - N/A   Clear
6:53 AM 51.1 °F - 48.0 °F 89% 30.11 in 5.0 mi Calm Calm - N/A   Clear
7:53 AM 53.1 °F - 50.0 °F 89% 30.12 in 5.0 mi Calm Calm - N/A   Clear
8:53 AM 55.9 °F - 51.1 °F 84% 30.12 in 8.0 mi Calm Calm - N/A   Clear
9:53 AM 62.1 °F - 54.0 °F 75% 30.13 in 10.0 mi Calm Calm - N/A   Clear
10:53 AM 69.1 °F - 57.0 °F 65% 30.14 in 10.0 mi Calm Calm - N/A   Clear
11:53 AM 75.0 °F - 59.0 °F 57% 30.12 in 10.0 mi Calm Calm - N/A   Clear
12:53 PM 77.0 °F - 60.1 °F 56% 30.11 in 10.0 mi Calm Calm - N/A   Clear
1:53 PM 79.0 °F - 60.1 °F 52% 30.10 in 10.0 mi Variable 5.8 mph - N/A   Clear
2:53 PM 80.1 °F 80.7 °F 59.0 °F 48% 30.09 in 10.0 mi South 3.5 mph - N/A   Clear
3:53 PM 80.1 °F 81.1 °F 61.0 °F 52% 30.07 in 10.0 mi Variable 3.5 mph - N/A   Clear
4:53 PM 81.0 °F 81.3 °F 59.0 °F 47% 30.06 in 10.0 mi Variable 4.6 mph - N/A   Clear
5:53 PM 80.1 °F 80.6 °F 57.9 °F 47% 30.06 in 10.0 mi Variable 3.5 mph - N/A   Clear
6:53 PM 79.0 °F - 57.9 °F 48% 30.06 in 10.0 mi South 5.8 mph - N/A   Clear
7:53 PM 75.9 °F - 59.0 °F 56% 30.07 in 10.0 mi South 4.6 mph - N/A   Partly Cloudy
8:53 PM 73.9 °F - 57.9 °F 57% 30.09 in 10.0 mi South 3.5 mph - N/A   Scattered Clouds
9:53 PM 71.6 °F - 59.0 °F 64% 30.16 in 10.0 mi Calm Calm - N/A   Mostly Cloudy
10:53 PM 71.1 °F - 59.0 °F 66% 30.12 in 10.0 mi Calm Calm - N/A   Mostly Cloudy
11:53 PM 68.0 °F - 60.1 °F 76% 30.11 in 10.0 mi Calm Calm - N/A   Partly Cloudy